Grand Forks, ND

4:30 PM CDT on May 23, 2017 (GMT -0500)
Grand Forks International

Weather History for KGFK - December, 2013

Change the Weather History Date:

Sunday, December 8, 2013

  Actual Average Record
Temperature  
Mean Temperature -11 °F 14 °F  
Max Temperature 0 °F 23 °F 53 °F (1990)
Min Temperature -23 °F 5 °F -26 °F (2007)
Degree Days  
Heating Degree Days 76 51  
Month to date heating degree days 481 396  
Since 1 July heating degree days 2592 2595  
Cooling Degree Days 0 0  
Month to date cooling degree days 0 0  
Year to date cooling degree days 487 379  
Moisture  
Dew Point -12 °F    
Average Humidity 74    
Maximum Humidity 79    
Minimum Humidity 69    
Precipitation  
Precipitation 0.05 in 0.02 in 0.30 in (1945)
Month to date precipitation 0.41 0.16  
Year to date precipitation 19.24 20.36  
Snow  
Snow 0.30 in 0.30 in 4.30 in (1995)
Month to date snowfall 10.8 2.6  
Since 1 July snowfall 12.4 11.8  
Snow Depth 6.00 in    
Sea Level Pressure  
Sea Level Pressure 30.17 in    
Wind  
Wind Speed 8 mph (South)    
Max Wind Speed 14 mph    
Max Gust Speed 17 mph    
Visibility 6 miles    
Events Snow    
T = Trace of Precipitation, MM = Missing Value Source: NWS Daily Summary

Daily Weather History Graph

Daily Weather History Graph

Search for Another Location

Airport or City:

Trip Planner

Search our weather history database for the weather conditions in past years. The results will help you decide how hot, cold, wet, or windy it might be!

Date:

Astronomy

Dec. 08, 2013 Rise Set
Actual Time 8:05 AM CST 4:35 PM CST
Civil Twilight 7:29 AM CST 5:11 PM CST
Nautical Twilight 6:50 AM CST 5:51 PM CST
Astronomical Twilight 6:12 AM CST 6:28 PM CST
Moon 12:05 PM CST (12/8) 11:50 PM CST (12/8)
Length of Visible Light 9h 42m
Length of Day
8h 30m
Waxing Crescent, 40% of the Moon is Illuminated
Dec 8
Waxing Crescent
Dec 9
First Quarter
Dec 17
Full
Dec 25
Last Quarter
Jan 1
New

Hourly Weather History & Observations

Time (CST) Temp. Windchill Dew Point Humidity Pressure Visibility Wind Dir Wind Speed Gust Speed Precip Events Conditions
12:53 AM -20.0 °F -37.1 °F -26.0 °F 74% 30.48 in 10.0 mi South 6.9 mph - N/A   Clear
1:53 AM -22.0 °F -41.0 °F -27.0 °F 77% 30.46 in 10.0 mi South 8.1 mph - N/A   Clear
2:53 AM -18.9 °F -29.5 °F -26.0 °F 70% 30.43 in 10.0 mi SSE 3.5 mph - N/A   Partly Cloudy
3:53 AM -20.9 °F -34.3 °F -27.0 °F 73% 30.42 in 10.0 mi SSE 4.6 mph - N/A   Scattered Clouds
4:53 AM -18.9 °F -38.6 °F -25.1 °F 74% 30.39 in 10.0 mi South 9.2 mph - N/A   Overcast
5:53 AM -14.1 °F -34.7 °F -20.9 °F 71% 30.37 in 10.0 mi South 11.5 mph - N/A   Mostly Cloudy
6:53 AM -13.0 °F -30.0 °F -20.0 °F 71% 30.35 in 10.0 mi South 8.1 mph - N/A   Mostly Cloudy
7:53 AM -11.0 °F -27.6 °F -18.0 °F 71% 30.32 in 10.0 mi South 8.1 mph - N/A   Mostly Cloudy
8:53 AM -9.9 °F -28.6 °F -16.1 °F 74% 30.30 in 10.0 mi South 10.4 mph - N/A   Overcast
9:53 AM -9.0 °F -26.4 °F -15.0 °F 75% 30.28 in 10.0 mi South 9.2 mph - N/A   Overcast
10:53 AM -7.1 °F -25.0 °F -13.0 °F 75% 30.27 in 4.0 mi South 10.4 mph - N/A   Haze
11:03 AM -7.6 °F -25.7 °F -11.2 °F 84% 30.17 in 2.5 mi South 10.4 mph - N/A   Haze
11:15 AM -5.8 °F -22.4 °F -11.2 °F 77% 30.17 in 1.5 mi South 9.2 mph - 0.00 in Snow Light Snow
11:29 AM -5.8 °F -23.4 °F -11.2 °F 77% 30.15 in 1.2 mi South 10.4 mph - 0.01 in Snow Light Snow
11:53 AM -5.1 °F -22.5 °F -11.0 °F 76% 30.23 in 1.2 mi South 10.4 mph - 0.01 in Snow Light Snow
12:32 PM -4.0 °F -20.2 °F -9.4 °F 78% 30.11 in 1.2 mi South 9.2 mph - N/A   Haze
12:42 PM -4.0 °F -19.0 °F -9.4 °F 78% 30.10 in 3.0 mi South 8.1 mph - N/A   Haze
12:53 PM -4.0 °F -20.2 °F -9.0 °F 79% 30.19 in 6.0 mi South 9.2 mph - 0.01 in   Haze
1:53 PM -2.0 °F -18.7 °F -8.0 °F 76% 30.17 in 3.0 mi SSE 10.4 mph - N/A   Haze
2:53 PM -0.9 °F -16.4 °F -7.1 °F 75% 30.14 in 2.0 mi South 9.2 mph - 0.00 in Snow Light Snow
3:14 PM -0.4 °F -14.7 °F -5.8 °F 78% 30.04 in 1.8 mi South 8.1 mph - 0.01 in Snow Light Snow
3:53 PM -0.0 °F -14.2 °F -6.0 °F 76% 30.13 in 6.0 mi SSW 8.1 mph - 0.01 in   Haze
4:25 PM -0.4 °F -14.7 °F -5.8 °F 78% 30.03 in 2.0 mi South 8.1 mph - 0.00 in Snow Light Snow
4:41 PM -0.4 °F -14.7 °F -5.8 °F 78% 30.03 in 1.8 mi South 8.1 mph - 0.00 in Snow Light Snow
4:53 PM -0.0 °F -13.0 °F -5.1 °F 79% 30.12 in 1.8 mi South 6.9 mph - 0.01 in Snow Light Snow
5:11 PM -0.4 °F -13.4 °F -5.8 °F 78% 30.01 in 2.5 mi South 6.9 mph - 0.00 in Snow Light Snow
5:39 PM -0.4 °F -13.4 °F -5.8 °F 78% 30.02 in 2.0 mi SSW 6.9 mph - 0.00 in   Haze
5:53 PM -0.0 °F -13.0 °F -5.1 °F 79% 30.10 in 2.0 mi South 6.9 mph - 0.00 in Snow Light Snow
6:01 PM -0.4 °F -10.4 °F -5.8 °F 78% 30.01 in 7.0 mi South 4.6 mph - 0.00 in   Overcast
6:53 PM -0.9 °F -14.1 °F -6.0 °F 79% 30.09 in 6.0 mi SSW 6.9 mph - 0.01 in Snow Light Snow
7:41 PM -2.2 °F -15.6 °F -5.8 °F 85% 29.99 in 6.0 mi South 6.9 mph - 0.00 in Snow Light Snow
7:53 PM -2.9 °F -15.0 °F -8.0 °F 79% 30.08 in 10.0 mi South 5.8 mph - 0.00 in   Overcast
8:53 PM -4.0 °F -16.3 °F -8.0 °F 83% 30.07 in 7.0 mi South 5.8 mph - 0.00 in Snow Light Snow
9:10 PM -5.8 °F -18.4 °F -9.4 °F 84% 29.98 in 10.0 mi SSW 5.8 mph - 0.00 in   Overcast
9:50 PM -5.8 °F -21.2 °F -9.4 °F 84% 29.97 in 10.0 mi West 8.1 mph - 0.00 in   Scattered Clouds
9:53 PM -6.0 °F -21.5 °F -11.0 °F 79% 30.06 in 10.0 mi West 8.1 mph - 0.00 in   Scattered Clouds
10:53 PM -7.1 °F -25.0 °F -13.0 °F 75% 30.05 in 10.0 mi West 10.4 mph - N/A   Partly Cloudy
11:53 PM -9.0 °F -26.4 °F -15.0 °F 75% 30.04 in 10.0 mi West 9.2 mph - N/A   Clear